TimeEDT,TemperatureF,Dew PointF,Humidity,Sea Level PressureIn,VisibilityMPH,Wind Direction,Wind SpeedMPH,Gust SpeedMPH,PrecipitationIn,Events,Conditions,WindDirDegrees,DateUTC
12:35 AM,66.2,64.4,94,30.16,10.0,SE,5.8,-,0.00,Rain,Light Rain,140,2013-08-22 04:35:00
12:53 AM,66.9,64.9,93,30.12,10.0,South,3.5,-,0.00,,Overcast,190,2013-08-22 04:53:00
1:53 AM,66.9,64.9,93,30.11,10.0,SSW,4.6,-,0.01,,Overcast,210,2013-08-22 05:53:00
2:03 AM,66.2,64.4,94,30.15,10.0,SW,3.5,-,N/A,,Overcast,220,2013-08-22 06:03:00
2:53 AM,66.0,64.0,93,30.11,10.0,SSW,5.8,-,N/A,,Overcast,200,2013-08-22 06:53:00
3:53 AM,66.0,63.0,90,30.11,10.0,Calm,Calm,-,N/A,,Overcast,0,2013-08-22 07:53:00
4:53 AM,64.9,63.0,93,30.10,10.0,South,3.5,-,N/A,,Mostly Cloudy,190,2013-08-22 08:53:00
5:53 AM,64.9,63.0,93,30.10,10.0,South,3.5,-,N/A,,Clear,190,2013-08-22 09:53:00
6:53 AM,64.0,62.1,93,30.10,10.0,SSE,3.5,-,N/A,,Clear,160,2013-08-22 10:53:00
7:53 AM,66.0,62.1,87,30.11,10.0,Calm,Calm,-,N/A,,Mostly Cloudy,0,2013-08-22 11:53:00
8:53 AM,66.9,63.0,87,30.12,10.0,SSW,4.6,-,N/A,,Overcast,210,2013-08-22 12:53:00
9:22 AM,69.8,62.6,78,30.15,10.0,Variable,3.5,-,N/A,,Mostly Cloudy,0,2013-08-22 13:22:00
9:53 AM,70.0,63.0,78,30.12,10.0,SW,6.9,-,N/A,,Overcast,220,2013-08-22 13:53:00
10:00 AM,69.8,62.6,78,30.15,10.0,SW,4.6,-,N/A,,Overcast,220,2013-08-22 14:00:00
10:23 AM,71.6,64.4,78,30.15,10.0,SW,6.9,-,N/A,,Scattered Clouds,220,2013-08-22 14:23:00
10:42 AM,71.6,64.4,78,30.15,10.0,SSW,8.1,-,N/A,,Mostly Cloudy,210,2013-08-22 14:42:00
10:53 AM,71.1,64.9,81,30.12,10.0,SW,5.8,-,N/A,,Mostly Cloudy,230,2013-08-22 14:53:00
11:00 AM,71.6,64.4,78,30.15,10.0,West,3.5,-,N/A,,Mostly Cloudy,270,2013-08-22 15:00:00
11:53 AM,73.9,66.9,79,30.11,10.0,SSW,8.1,-,N/A,,Overcast,200,2013-08-22 15:53:00
12:13 PM,73.4,66.2,78,30.14,10.0,South,4.6,-,N/A,,Overcast,180,2013-08-22 16:13:00
12:53 PM,75.0,66.0,73,30.10,10.0,WSW,6.9,-,N/A,,Overcast,250,2013-08-22 16:53:00
1:53 PM,77.0,66.9,71,30.09,7.0,SW,8.1,-,N/A,,Mostly Cloudy,220,2013-08-22 17:53:00
2:46 PM,78.8,66.2,65,30.09,6.0,Variable,4.6,-,N/A,,Haze,0,2013-08-22 18:46:00
2:53 PM,79.0,68.0,69,30.05,6.0,WSW,6.9,-,N/A,,Haze,240,2013-08-22 18:53:00
3:24 PM,78.8,68.0,69,30.08,6.0,SSW,8.1,-,N/A,,Haze,210,2013-08-22 19:24:00
3:36 PM,78.8,68.0,69,30.08,6.0,SSW,8.1,-,N/A,,Haze,200,2013-08-22 19:36:00
3:53 PM,80.1,68.0,67,30.03,7.0,SW,8.1,-,N/A,,Scattered Clouds,220,2013-08-22 19:53:00
4:32 PM,80.6,68.0,65,30.06,8.0,West,9.2,-,N/A,,Mostly Cloudy,260,2013-08-22 20:32:00
4:41 PM,80.6,68.0,65,30.06,9.0,West,8.1,-,N/A,,Scattered Clouds,260,2013-08-22 20:41:00
4:53 PM,80.1,68.0,67,30.02,9.0,WSW,6.9,-,N/A,,Scattered Clouds,250,2013-08-22 20:53:00
5:53 PM,79.0,68.0,69,30.01,9.0,West,4.6,-,N/A,,Mostly Cloudy,270,2013-08-22 21:53:00
6:53 PM,78.1,68.0,71,30.01,9.0,West,5.8,-,N/A,,Mostly Cloudy,270,2013-08-22 22:53:00
7:53 PM,75.9,66.9,74,30.00,8.0,West,3.5,-,N/A,,Partly Cloudy,260,2013-08-22 23:53:00
8:53 PM,73.9,68.0,82,30.00,8.0,Calm,Calm,-,N/A,,Clear,0,2013-08-23 00:53:00
9:53 PM,71.1,66.9,87,30.02,7.0,SSW,4.6,-,N/A,,Clear,200,2013-08-23 01:53:00
10:53 PM,71.1,64.9,81,30.03,9.0,Calm,Calm,-,N/A,,Mostly Cloudy,0,2013-08-23 02:53:00
11:53 PM,70.0,64.9,84,30.03,10.0,SW,4.6,-,N/A,,Scattered Clouds,220,2013-08-23 03:53:00